Location: Cossonay
(46.5833°N, 6.4167°E)
Time: 22:03:22
(UTC+00:00)

CBERS-1 - Pass Details

Date: 06 October 2020
Orbit: 770 x 777 km, 98.6° (Epoch: 22 October)

Event Time Altitude Azimuth Distance (km) Brightness Sun altitude
Rises 02:18:02 0° 11° (N) 3,260 7.8 -34.0°
Reaches altitude 10° 02:20:21 10° 9° (N) 2,330 6.9 -33.7°
Enters shadow 02:22:33 26° 3° (N) 1,498 5.7 -33.4°
